Location: Unspecified
(0.0000°N, 0.0000°E)
Time: 10:37:43
(UTC+00:00)

Galileo 6 - Pass Details

Date: 04 December 2022
Orbit: 17095 x 26103 km, 50.1° (Epoch: 05 February)

Event Time Altitude Azimuth Distance (km) Brightness Sun altitude
Rises 14:15:21 0° 220° (SW) 29,465 ? 48.2°
Reaches altitude 10° 15:04:02 10° 215° (SW) 29,646 ? 37.9°
Maximum altitude 18:56:14 47° 267° (W) 25,673 ? -15.2°
Drops below altitude 10° 00:48:23 10° 99° (E) 23,262 ? -63.6°
Sets 01:53:00 0° 123° (ESE) 26,710 ? -52.7°
